View from above orbital plane
|
View from above satellite
|
Ground track
|
The orbit data is extracted from the following two-line orbital elements,
1 25544U 98067A 21104.68715880 -.00000069 00000-0 69184-5 0 9990
2 25544 51.6432 296.8036 0002882 227.7888 254.1596 15.48881638278752
Epoch (UTC): | 14 April 2021 16:29:30 |
Eccentricity: | 0.0002882 |
inclination: | 51.6432° |
perigee height: | 418 km |
apogee height: | 422 km |
right ascension of ascending node: | 296.8036° |
argument of perigee: | 227.7888° |
revolutions per day: | 15.48881638 |
mean anomaly at epoch: | 254.1596° |
orbit number at epoch: | 27875 |
The dashed part of the orbit path shows where the satellite is in the earth's shadow,
|
|